Regional Weather Roundup
Issued by NWS Pendleton, OR

Home | Current Version | Previous Version | Text Only | Print | Product List | Glossary On
Versions: 1 2 3 4 5 6 7 8 9 10 11 12 13 14 15 16 17 18 19 20 21 22 23 24 25 26 27 28 29 30 31 32 33 34 35 36 37 38 39 40 41 42 43 44 45 46 47 48 49 50
000
ASUS46 KPDT 270110
RWRPDT
PENDLETON REGIONAL WEATHER ROUNDUP
NATIONAL WEATHER SERVICE PENDLETON OREGON
600 PM PDT THU APR 26 2018

NOTE: FAIR INDICATES FEW OR NO CLOUDS BELOW 12,000 FEET WITH NO
SIGNIFICANT WEATHER AND/OR OBSTRUCTIONS TO VISIBILITY.

# INDICATES UNOFFICIAL STATION AND DATA

WAZ520-270210-
EAST SLOPES OF WASHINGTON CASCADES

CITY            SKY/WX      TMP DP  RH  WIND    PRES   REMARKS
#BULLFROG       N/A         75  31  20  E8      N/A
#CLE ELUM HS    N/A         74  30  20  S6      29.93F
#EASTON DOT     N/A         74  32  21  N6      N/A
#ELK HTS DOT    N/A         74  73  97  NE2     N/A
#GLENWOOD       N/A         77  46  33  CALM    29.90F
#NELSON 3SW     N/A         58  39  49  CALM    30.16F
#NILE           N/A         76  39  26  CALM    29.30F
#TEANAWAY 4NE   N/A         74  43  33  CALM    N/A
#TROUT LAKE 1NE N/A         77  46  33  SE3     29.88F
#TROUT LAKE 1E  N/A         79  46  31  CALM    29.96F
$$

WAZ521-270210-
SIMCOE HIGHLANDS

CITY            SKY/WX      TMP DP  RH  WIND    PRES   REMARKS
#BICKLETON HS   N/A         69  36  30  NE10    29.68F
#SATUS PASS DOT N/A         71  27  19  SE6     N/A
#CENTERVILLE 1SWN/A         72  47  41  E7      29.88F
#GOLDENDALE 1NE N/A         80  10   7  E10     N/A
#GOLDENDALE 4W  N/A         77  20  12  E7      29.96F
#GOODNOE HILLS  N/A         78  34  20  E12     29.84F
#LYLE 6NE       N/A         75  43  32  E1      29.90F
#PITT 4SE       N/A         72  44  37  NE5     29.92F
$$

WAZ026-270210-
KITTITAS VALLEY

CITY            SKY/WX      TMP DP  RH  WIND    PRES   REMARKS
ELLENSBURG AP   PTCLDY      78  31  18  SE5     29.98F
#ELLENSBURG CWU N/A         76  31  19  SE5     29.88F
#ELLENSBURG 3NE N/A         75  36  24  N1      28.06F
#ELLENSBURG 1E  N/A         77  32  19  SE1     30.00F
#KITTITAS 3S    N/A         74  45  35  NE6     29.94F
#MANASTASH RDG  N/A         74  74  100 NE6     N/A
#ROCKY CYN DOT  N/A         74  38  27  E6      N/A
#RYEGRASS DOT   N/A         71  34  26  CALM    N/A
$$

WAZ027-270210-
YAKIMA VALLEY

CITY            SKY/WX      TMP DP  RH  WIND    PRES   REMARKS
YAKIMA AIRPORT  PTCLDY      82  32  16  CALM    29.95F
YAKIMA-VAGABOND SUNNY       79  28  15  E12     29.94F
#DONALD 2NE     N/A         87  24  10  S1      28.79F
#GRANDVIEW      N/A         79  31  17  E1      29.93F
#MABTON         N/A         79  41  26  N3      29.93F
#MOXEE 2E       N/A         37  N/A N/A SW12    29.79S WCI 29
#NACHES 2SW     N/A         78  37  23  SE2     30.01F
#OUTLOOK DOT    N/A         79  28  15  N2      29.91F
#PARKER DOT     N/A         81  28  14  CALM    29.95F
#TERRACE HTS    N/A         79  36  21  CALM    29.90F
#TOPPENISH      N/A         79  37  22  CALM    29.85F
#I82 S UMTANUM RN/A         77  35  22  NE7     N/A
#UNION GAP DOT  N/A         81  30  16  CALM    29.97F
#W YAKIMA       N/A         78  38  24  SE6     29.92F
#WHITE SWAN 5E  N/A         80  39  23  CALM    29.93F
#WILEY CITY 3W  N/A         81  26  13  CALM    29.94F
#ZILLAH DOT     N/A         80  33  18  E5      N/A
$$

WAZ028-270210-
LOWER COLUMBIA BASIN...WASHINGTON

CITY            SKY/WX      TMP DP  RH  WIND    PRES   REMARKS
PASCO           PTCLDY      81  51  35  N8      29.91F
PROSSER AWOS    N/A         79  34  20  E9      29.96F
RICHLAND AWOS   PTCLDY      83  42  24  N7      29.91F
#BASIN CITY 5SW N/A         79  54  42  NW5     29.90F
#BENTON CITY    N/A         78  39  25  N2      29.82F
#CONNELL 5N     N/A         80  35  20  N6      29.92F
#CONNELL 5NW    N/A         79  47  32  N2      29.86F
#ELTOPIA 6NW    N/A         84  46  27  CALM    28.91F
#KAHLOTUS       N/A         78  37  23  SE2     29.91F
#KENNEWICK 3S   N/A         81  45  28  CALM    29.91F
#PROSSER DOT    N/A         80  33  18  NE5     29.94F
#SAGEMOOR 2W    N/A         80  51  36  N2      29.77F
#TOUCHET 2S     N/A         81  54  39  CALM    29.88F
#WEST PASCO     N/A         87  52  30  CALM    29.89F
$$

WAZ029-270210-
FOOTHILLS OF THE BLUES...WASHINGTON

CITY            SKY/WX      TMP DP  RH  WIND    PRES   REMARKS
WALLA WALLA AP  PTCLDY      77  52  42  N7      29.93F
#CLYDE 6NW      N/A         79  37  22  NE3     29.89F
#DELANEY DOT    N/A         82  36  19  N5      29.95F
#LOWDEN 2SE     N/A         81  56  42  W1      29.87F
#PLEASANT VIEW 1N/A         77  42  29  NE1     29.94F
#PRESCOTT       N/A         87  48  26  CALM    29.88F
#WHITMAN COLLEGEN/A         81  51  35  NW5     29.93F
#WAITSBURG 6SSE N/A         79  45  30  N5      29.74F
#WAITSBURG 8N   N/A         75  N/A N/A N7      29.74F
#WALLA WALLA 5E N/A         81  45  28  N5      N/A
#WHITMAN MISSIONN/A         79  56  45  SW3     29.90F
$$

WAZ030-270210-
BLUE MOUNTAINS...WASHINGTON

CITY            SKY/WX      TMP DP  RH  WIND    PRES   REMARKS
$$

ORZ009-041-WAZ024-270210-
COLUMBIA RIVER GORGE

CITY            SKY/WX      TMP DP  RH  WIND    PRES   REMARKS
HOOD RIVER AP   PTCLDY      79  36  21  CALM    29.89F
THE DALLES AP   PTCLDY      84  35  17  E9      29.88F
#ARLINGTON AIRPON/A         78  38  24  NE10    29.90F
#CELILO DOT     N/A         86  45  24  N3      N/A
#LYLE           N/A         82  39  22  SE6     29.88F
#MARYHILL       N/A         78  36  22  N10     N/A
#MURDOCK        N/A         83  46  27  E2      29.82F
#RUFUS DOT      N/A         80  40  24  SE13    N/A
#SMITHVILLE     N/A         81  44  27  E3      29.85F

$$

ORZ510-270210-
NORTH CENTRAL OREGON

CITY            SKY/WX      TMP DP  RH  WIND    PRES   REMARKS
#ANTELOPE       N/A         73  47  40  NE14    29.71F
#CHENOWITH 1W   N/A         74  45  35  E10     N/A
#COW CYN RST AREN/A         72  N/A N/A NE14    N/A
#DUFUR          N/A         76  41  28  N5      29.87F
#DUFUR 9E       N/A         70  35  28  E17     29.93F
#GRASS VALLEY 1SN/A         71  42  35  NE15    29.98F
#KENT DOT       N/A         72  37  28  NE12    N/A
#MAUPIN SCHOOL  N/A         79  45  30  NE6     29.95F
#SHANIKO 5WSW   N/A         69  42  37  NE22    N/A
#SHANIKO 4NW    N/A         68  41  37  NE18    29.99F
#TYGH VALLEY 2NEN/A         78  42  28  N7      29.87F
#WAPANITIA AIRPON/A         75  41  29  NE7     29.91F
#WASCO DOT      N/A         79  41  26  E12     N/A
#WASCO 5NE      N/A         74  47  38  E5      29.91F
$$

ORZ511-270210-
CENTRAL OREGON

CITY            SKY/WX      TMP DP  RH  WIND    PRES   REMARKS
BEND AIRPORT    PTCLDY      79  41  26  N16     29.93F
MADRAS AIRPORT  SUNNY       75  43  32  N18     29.93F
PRINEVILLE AP   PTCLDY      84  27  13  SE13    29.89F
REDMOND AIRPORT PTCLDY      81  44  27  N17     29.90F
#ASHWOOD SCHOOL N/A         76  45  33  N2      29.89F
#BEND 1SW       N/A         71  44  38  S1      N/A
#BEND-AWBREY    N/A         76  45  33  N5      29.81S
#BEND-KIM LN    N/A         75  44  33  VRB7    29.78F
#CULVER         N/A         75  47  37  N9      29.66F
#CULVER 8W      N/A         77  34  21  NW5     29.96F
#LAKE BILLY CHINN/A         76  N/A N/A N12     29.97F
#POWELL BUTTE   N/A         78  46  32  NW10    29.89F
#PRINEVILLE     N/A         84  36  18  E3      29.85F
#PRINEVILLE 3N  N/A         80  46  30  N10     29.76F
#WARM SPRINGS   N/A         79  45  30  CALM    29.71F

$$


ORZ509-270210-
EAST SLOPES OF OREGON CASCADES

CITY            SKY/WX      TMP DP  RH  WIND    PRES   REMARKS
SISTERS AWOS    N/A         75  43  32  N10     29.92F
#BLUE BOX PASS  N/A         70  N/A N/A S3      N/A
#CAMP SHERMAN   N/A         75  41  29  N2      29.93S
#LA PINE 4NW    N/A         72  44  37  N3      29.81R
#LAVA BUTTE DOT N/A         70  38  31  N2      N/A
#SISTERS ODOT   N/A         76  40  27  SW3     N/A
#SISTERS 3N     N/A         74  40  29  N3      29.94F
#SUNRIVER       N/A         71  42  35  N3      29.80S
#TUMALO 3W      N/A         73  44  35  N8      29.69F
#WANOGA BUTTE D N/A         62  N/A N/A NE8     N/A

$$

ORZ044-270210-
LOWER COLUMBIA BASIN...OREGON

CITY            SKY/WX      TMP DP  RH  WIND    PRES   REMARKS
HERMISTON       PTCLDY      82  44  26  E5      29.91F
#BOARDMAN SCHOOLN/A         81  40  23  N2      29.89F
#BOARDMAN 8SW   N/A         81  42  25  NE8     29.89F
#ECHO 8SW       N/A         80  43  27  CALM    29.93F
#I-84 EX 198 DOTN/A         77  46  33  E9      N/A
#IONE SCHOOL    N/A         77  40  26  N3      29.92F
#UMATILLA       N/A         83  42  24  CALM    29.82F
$$

ORZ507-270210-
NORTHERN FOOTHILLS OF THE BLUES

CITY            SKY/WX      TMP DP  RH  WIND    PRES   REMARKS
PENDLETON AIRPT PTCLDY      77  45  32  NE8     29.94F
#ADAMS 3WNW     N/A         76  50  40  VRB3    29.91F
#ATHENA         N/A         75  50  41  N1      29.96F
#CAYUSE         N/A         75  49  40  NW2     29.90F
#HELIX SCHOOL   N/A         74  52  46  N3      29.93F
#HELIX 3N       N/A         73  52  48  N7      29.98F
#HOLDMAN 5SE    N/A         77  51  40  CALM    29.94F
#HOLDMAN 6E     N/A         75  53  46  N3      29.72F
#M-F GROVE ELEM N/A         79  46  31  E1      29.91F
#M-FREEWATER 5SEN/A         79  53  41  CALM    29.93F
#PENDLETON DNTN N/A         78  41  27  SE5     N/A
#PDT AQUATIC CTRN/A         77  44  31  NE5     29.93F
#PDT SUNRIDGE   N/A         78  47  34  CALM    29.95F
#PENDLETON 6SE  N/A         76  52  43  N2      29.88F
#PENDLETON 7NW  N/A         78  53  42  CALM    N/A
#PILOT ROCK 1S  N/A         74  45  35  CALM    29.96F
#PILOT ROCK     N/A         76  48  37  CALM    29.97F
#TUTUILLA       N/A         73  50  44  N2      29.99F
#UMAPINE 2E     N/A         81  58  46  CALM    29.88F

$$

ORZ508-270210-
SOUTHERN FOOTHILLS OF THE BLUES

CITY            SKY/WX      TMP DP  RH  WIND    PRES   REMARKS
#AJAX           N/A         72  35  26  CALM    30.11F
#CONDON 5W      N/A         68  39  35  NE7     29.97F
#FOSSIL SCHOOL  N/A         74  48  40  NE15G25 29.90F
#HEPPNER EOC    N/A         74  44  34  N8      29.84F
#HEPPNER 4NE    N/A         69  44  40  NE7     29.91F
#LEXINGTON 2SE  N/A         77  42  29  NE3     29.90F
#MIKKALO        N/A         75  38  26  NE7     30.05F
#OLEX 4N        N/A         77  37  24  NE9     29.92F
#RUGGS 5NE      N/A         72  42  34  N13     30.17S
#RUGGS 2SW      N/A         71  43  36  NE7     29.93F

$$

ORZ502-503-270210-
BLUE MOUNTAINS

CITY            SKY/WX      TMP DP  RH  WIND    PRES   REMARKS
MEACHAM         SUNNY       70  44  39  VRB3    30.04F
#BATTLE MTN DOT N/A         64  43  46  N5      N/A
#GRANITE        N/A         71  28  20  S6      29.74F
#HARDMAN 10S    N/A         68  44  42  N12     30.00F
#HEPPNER 15SE   N/A         66  45  47  N2      25.56F
#LADD CYN SMT   N/A         74  32  21  SE12    N/A
#LADD CREEK ODOTN/A         79  41  26  S2      N/A
#N POWDER DOT   N/A         75  38  26  SE10    N/A
#PIKES PEAK     N/A         70  45  41  N2      27.99S
#SUMMERVILLE 5NWN/A         74  44  34  W3      26.66F
#TOLLGATE       N/A         63  47  56  NE1     30.13F
#TROY SCHOOL    N/A         85  47  27  CALM    29.73F
#UKIAH          N/A         70  49  47  NW10    29.84F
#WESTON 4E      N/A         70  50  49  N2      29.88F
$$

ORZ505-270210-
JOHN DAY BASIN

CITY            SKY/WX      TMP DP  RH  WIND    PRES   REMARKS
JOHN DAY        SUNNY       78  34  20  E13     29.98F
#ANTELOPE 9ESE  N/A         79  45  30  E7G25   N/A
#DAYVILLE SCHOOLN/A         85  30  14  E3      29.85F
#MITCHELL 8NW   N/A         77  47  35  CALM    29.85F
#MONUMENT HS    N/A         87  34  15  W5      29.84F
#MT. VERNON 5SE N/A         75  36  24  N10     29.93F
#SPRAY SCHOOL   N/A         83  N/A N/A NW8     N/A
$$

ORZ506-270210-
OCHOCO AND JOHN DAY HIGHLANDS

CITY            SKY/WX      TMP DP  RH  WIND    PRES   REMARKS
#HORSE RIDGE DO N/A         76  38  25  NW20G29 N/A
#IZEE 6NW       N/A         82  38  21  NE2     N/A
#KEYES SMT DOT  N/A         74  40  29  W6      N/A
#PAULINA ODOT   N/A         81  27  14  NE9     N/A
#PINE MTN OBS   N/A         67  25  20  NE2     N/A
#PRAIRIE CITY   N/A         79  38  23  CALM    30.12F
#SENECA         N/A         73  N/A N/A SE7     N/A
#SENECA 9NW     N/A         73  36  26  CALM    29.89F
$$

ORZ049-270210-
GRANDE RONDE VALLEY

CITY            SKY/WX      TMP DP  RH  WIND    PRES   REMARKS
LA GRANDE       PTCLDY      78  36  22  S10     29.98F
#COVE SCHOOL    N/A         79  39  24  E1      30.00F
#COVE 6NW       N/A         79  39  24  S3      29.93F
#ELGIN 3N       N/A         80  34  19  CALM    29.95F
#ELGIN 1E       N/A         81  40  23  CALM    N/A
#IMBLER SCHOOL  N/A         77  34  21  CALM    29.95F
#ISLAND CITY 4N N/A         85  51  31  CALM    29.82F
#LADD CYN DOT   N/A         78  43  29  S8      N/A
#UNION 1S       N/A         77  40  26  S7      29.92F
$$

ORZ050-270210-
WALLOWA COUNTY

CITY            SKY/WX      TMP DP  RH  WIND    PRES   REMARKS
#ENTERPRISE HS  N/A         77  41  28  CALM    29.82F
#IMNAHA SCHOOL  N/A         78  39  25  NW2     29.94F
#JOSEPH         N/A         74  25  16  N2      30.24F
#JOSEPH 3N      N/A         74  34  23  CALM    30.07F
#JOSEPH 3W      N/A         62  46  56  SW3     29.92F
#LOSTINE        N/A         78  36  22  CALM    29.74F
#LOSTINE 3SE    N/A         76  35  22  CALM    30.09F
#MT HOWARD 8000 N/A         54  28  36  NE2     30.28F
#PROMISE 1S     N/A         74  42  32  CALM    30.01F
#WALLOWA LAKE   N/A         64  42  45  CALM    30.10S
#WALLOWA SCHOOL N/A         79  37  22  CALM    29.96F



$$



USA.gov is the U.S. government's official web portal to all federal, state and local government web resources and services.